Location: St. Louis
(38.6270°N, 90.1994°W)
Time: 07:13:38
(UTC-06:00)

Altair - Pass Details

Date: 04 December 2021
Orbit: 1501 x 1683 km, 47.2° (Epoch: 17 January)

Event Time Altitude Azimuth Distance (km) Brightness Sun altitude
Rises 23:30:44 0° 293° (WNW) 4,638 - -73.2°
Reaches altitude 10° 23:34:36 10° 279° (W) 3,651 - -73.4°
Maximum altitude 23:41:04 22° 233° (SW) 2,825 - -73.6°
Drops below altitude 10° 23:47:37 10° 187° (S) 3,677 - -73.8°
Sets 23:51:34 0° 173° (S) 4,680 - -73.8°
